Lone Rock, WI

3:13 PM CDT on May 26, 2017 (GMT -0500)
Tri-County Regional

Weather History for KLNR - February, 2015

Change the Weather History Date:

Wednesday, February 25, 2015

  Actual Average Record
Temperature  
Mean Temperature 14 °F -  
Max Temperature 17 °F 34 °F 55 °F (1998)
Min Temperature 10 °F 19 °F -9 °F (2003)
Degree Days  
Heating Degree Days 52    
Moisture  
Dew Point 4 °F    
Average Humidity 65    
Maximum Humidity 80    
Minimum Humidity 39    
Precipitation  
Precipitation 0.02 in - - ()
Sea Level Pressure  
Sea Level Pressure 30.03 in    
Wind  
Wind Speed 5 mph (NE)    
Max Wind Speed 10 mph    
Max Gust Speed -    
Visibility 6 miles    
Events Snow    
Averages and records for this station are not official NWS values.
T = Trace of Precipitation, MM = Missing Value Source: NWS Daily Summary

Daily Weather History Graph

Daily Weather History Graph

Search for Another Location

Airport or City:

Trip Planner

Search our weather history database for the weather conditions in past years. The results will help you decide how hot, cold, wet, or windy it might be!

Date:

Astronomy

Feb. 25, 2015 Rise Set
Actual Time 6:43 AM CST 5:44 PM CST
Civil Twilight 6:15 AM CST 6:13 PM CST
Nautical Twilight 5:42 AM CST 6:46 PM CST
Astronomical Twilight 5:09 AM CST 7:19 PM CST
Moon 10:54 AM CST (2/25) 12:43 AM CST (2/25)
Length of Visible Light 11h 58m
Length of Day
11h 00m
Waxing Crescent, 50% of the Moon is Illuminated
Feb 25
Waxing Crescent
Mar 5
Full
Mar 13
Last Quarter
Mar 20
New
Mar 27
First Quarter

Hourly Weather History & Observations

Time (CST) Temp. Windchill Dew Point Humidity Pressure Visibility Wind Dir Wind Speed Gust Speed Precip Events Conditions
12:56 AM 17.1 °F 6.6 °F -2.9 °F 41% 29.91 in 10.0 mi NNW 8.1 mph - N/A   Clear
1:56 AM 16.0 °F 4.4 °F -5.1 °F 39% 29.94 in 10.0 mi North 9.2 mph - N/A   Clear
2:56 AM 10.0 °F 3.6 °F -5.1 °F 51% 29.94 in 10.0 mi NNE 3.5 mph - N/A   Clear
3:56 AM 10.9 °F 1.4 °F -4.0 °F 51% 29.94 in 10.0 mi NE 5.8 mph - N/A   Overcast
4:56 AM 10.9 °F 4.7 °F -2.9 °F 54% 29.96 in 10.0 mi NE 3.5 mph - N/A   Overcast
5:56 AM 12.0 °F 1.5 °F -4.0 °F 49% 29.98 in 10.0 mi NE 6.9 mph - N/A   Overcast
6:56 AM 12.0 °F 4.1 °F -4.0 °F 49% 30.00 in 10.0 mi NE 4.6 mph - N/A   Overcast
7:56 AM 12.0 °F 4.1 °F -4.0 °F 49% 30.02 in 10.0 mi East 4.6 mph - N/A   Overcast
8:56 AM 12.9 °F - -2.9 °F 49% 30.06 in 10.0 mi Calm Calm - N/A   Overcast
9:56 AM 14.0 °F - -2.9 °F 47% 30.05 in 10.0 mi Calm Calm - N/A   Overcast
10:56 AM 14.0 °F - -0.0 °F 54% 30.06 in 9.0 mi Calm Calm - N/A   Overcast
11:42 AM 14.0 °F - 3.9 °F 64% 30.03 in 2.0 mi Calm Calm - 0.00 in Snow Light Snow
11:51 AM 14.0 °F - 5.0 °F 67% 30.03 in 1.2 mi Calm Calm - 0.00 in Snow Light Snow
11:56 AM 14.0 °F - 6.1 °F 71% 30.05 in 1.0 mi Calm Calm - 0.00 in Snow Light Snow
12:56 PM 14.0 °F 8.2 °F 8.1 °F 77% 30.03 in 1.0 mi East 3.5 mph - 0.00 in Snow Light Snow
1:56 PM 14.0 °F 8.2 °F 9.0 °F 80% 30.02 in 1.5 mi ESE 3.5 mph - 0.01 in Snow Light Snow
2:04 PM 14.0 °F 6.5 °F 9.0 °F 80% 29.99 in 2.0 mi SE 4.6 mph - 0.00 in Snow Light Snow
2:10 PM 14.0 °F 8.2 °F 9.0 °F 80% 29.99 in 1.8 mi ESE 3.5 mph - 0.00 in Snow Light Snow
2:30 PM 15.1 °F - 10.0 °F 80% 29.98 in 2.0 mi Calm Calm - 0.00 in Snow Light Snow
2:42 PM 15.1 °F 9.4 °F 9.0 °F 77% 29.99 in 3.0 mi East 3.5 mph - 0.00 in Snow Light Snow
2:56 PM 15.1 °F 7.7 °F 9.0 °F 77% 30.01 in 2.0 mi East 4.6 mph - 0.00 in Snow Light Snow
3:01 PM 15.1 °F 7.7 °F 10.0 °F 80% 29.98 in 1.8 mi East 4.6 mph - 0.00 in Snow Light Snow
3:56 PM 15.1 °F 6.4 °F 10.0 °F 80% 30.02 in 1.0 mi East 5.8 mph - 0.01 in Snow Light Snow
4:56 PM 16.0 °F 7.4 °F 9.0 °F 74% 30.04 in 1.5 mi NE 5.8 mph - 0.00 in Snow Light Snow
5:41 PM 15.1 °F 4.2 °F 9.0 °F 77% 30.03 in 2.5 mi NNE 8.1 mph - 0.00 in Snow Light Snow
5:48 PM 15.1 °F 2.5 °F 8.1 °F 74% 30.04 in 5.0 mi NNE 10.4 mph - 0.00 in Snow Light Snow
5:56 PM 15.1 °F 3.3 °F 7.0 °F 70% 30.07 in 5.0 mi North 9.2 mph - 0.00 in Snow Light Snow
6:56 PM 14.0 °F 2.9 °F 6.1 °F 71% 30.11 in 7.0 mi North 8.1 mph - 0.00 in Snow Light Snow
7:56 PM 14.0 °F 5.1 °F 6.1 °F 71% 30.12 in 8.0 mi NNE 5.8 mph - 0.00 in   Overcast
8:56 PM 14.0 °F 5.1 °F 6.1 °F 71% 30.14 in 10.0 mi North 5.8 mph - N/A   Overcast
9:56 PM 14.0 °F 5.1 °F 6.1 °F 71% 30.15 in 10.0 mi North 5.8 mph - N/A   Overcast
10:56 PM 14.0 °F 1.2 °F 1.9 °F 59% 30.16 in 10.0 mi NNW 10.4 mph - N/A   Overcast
11:56 PM 12.9 °F 0.7 °F -0.0 °F 56% 30.17 in 10.0 mi NNW 9.2 mph - N/A   Overcast